Rochester, NY

3:45 AM EST on November 15, 2019 (GMT -0500)
Greater Rochester International

Weather History for KROC - October, 2019

Change the Weather History Date:

Saturday, October 12, 2019

  Actual Average Record
Temperature  
Mean Temperature 49 °F 52 °F  
Max Temperature 57 °F 61 °F 84 °F (1928)
Min Temperature 40 °F 43 °F 27 °F (1876)
Degree Days  
Heating Degree Days 16 13  
Month to date heating degree days 115 138  
Since 1 July heating degree days 179 319  
Cooling Degree Days 0 0  
Month to date cooling degree days 13 0  
Year to date cooling degree days 621 534  
Moisture  
Dew Point 44 °F    
Average Humidity 72    
Maximum Humidity 90    
Minimum Humidity 57    
Precipitation  
Precipitation 0.12 in 0.09 in 1.29 in (1946)
Month to date precipitation 1.28 1.11  
Year to date precipitation 25.14 27.09  
Snow  
Snow 0.00 in 0.00 in T in (1988)
Month to date snowfall 0.0 0.0  
Since 1 July snowfall 0.0 0.0  
Since 1 September snowfall 0.0 0.0  
Snow Depth 0.00 in    
Sea Level Pressure  
Sea Level Pressure 29.98 in    
Wind  
Wind Speed 6 mph ()    
Max Wind Speed 23 mph    
Max Gust Speed 31 mph    
Visibility 9.6 miles    
Events Rain    
T = Trace of Precipitation, MM = Missing Value Source: Averaged Metar Reports

Daily Weather History Graph

Daily Weather History Graph

Search for Another Location

Airport or City:

Astronomy

Oct. 12, 2019 Rise Set
Actual Time 7:20 AM EDT 6:33 PM EDT
Civil Twilight 6:51 AM EDT 7:01 PM EDT
Nautical Twilight 6:18 AM EDT 7:34 PM EDT
Astronomical Twilight 5:45 AM EDT 8:07 PM EDT
Moon 6:31 PM EDT (10/12) 5:51 AM EDT (10/12)
Length of Visible Light 12h 09m
Length of Day
11h 12m
Waxing Gibbous, 99% of the Moon is Illuminated
Oct 12
Waxing Gibbous
Oct 13
Full
Oct 21
Last Quarter
Oct 27
New
Nov 4
First Quarter

Hourly Weather History & Observations

Time (EDT) Temp. Windchill Dew Point Humidity Pressure Visibility Wind Dir Wind Speed Gust Speed Precip Events Conditions
12:54 AM 53.1 °F - 42.1 °F 66% 30.01 in 10.0 mi SE 8.1 mph - N/A   Scattered Clouds
1:54 AM 53.1 °F - 42.1 °F 66% 29.98 in 10.0 mi SE 5.8 mph - N/A   Mostly Cloudy
2:54 AM 52.0 °F - 41.0 °F 66% 29.96 in 10.0 mi SE 4.6 mph - N/A   Clear
3:54 AM 52.0 °F - 41.0 °F 66% 29.94 in 10.0 mi SSE 3.5 mph - N/A   Clear
4:54 AM 51.1 °F - 41.0 °F 68% 29.93 in 10.0 mi SSE 4.6 mph - N/A   Partly Cloudy
5:54 AM 53.1 °F - 42.1 °F 66% 29.91 in 10.0 mi SE 4.6 mph - N/A   Overcast
6:54 AM 54.0 °F - 44.1 °F 69% 29.92 in 10.0 mi South 5.8 mph - N/A   Overcast
7:54 AM 54.0 °F - 48.0 °F 80% 29.91 in 10.0 mi SE 4.6 mph - 0.00 in Rain Light Rain
8:54 AM 55.0 °F - 50.0 °F 83% 29.92 in 10.0 mi SW 3.5 mph - 0.00 in   Overcast
9:54 AM 55.0 °F - 51.1 °F 86% 29.94 in 5.0 mi Calm Calm - 0.04 in Rain Light Rain
10:54 AM 55.0 °F - 52.0 °F 89% 29.94 in 6.0 mi SW 6.9 mph - 0.05 in Rain Rain
11:54 AM 55.9 °F - 53.1 °F 90% 29.95 in 10.0 mi SW 8.1 mph - 0.03 in   Overcast
12:54 PM 57.9 °F - 51.1 °F 78% 29.96 in 10.0 mi West 13.8 mph 21.9 mph N/A   Overcast
1:52 PM 57.2 °F - 48.2 °F 72% 29.96 in 10.0 mi West 16.1 mph - N/A   Mostly Cloudy
1:54 PM 55.9 °F - 48.0 °F 75% 29.97 in 10.0 mi West 17.3 mph - N/A   Mostly Cloudy
2:54 PM 55.9 °F - 45.0 °F 67% 29.99 in 10.0 mi West 13.8 mph 23.0 mph N/A   Mostly Cloudy
3:54 PM 55.9 °F - 42.1 °F 60% 30.00 in 10.0 mi WSW 17.3 mph 25.3 mph N/A   Scattered Clouds
4:54 PM 55.9 °F - 41.0 °F 57% 30.01 in 10.0 mi West 15.0 mph 23.0 mph N/A   Mostly Cloudy
5:54 PM 54.0 °F - 41.0 °F 62% 30.01 in 10.0 mi WSW 11.5 mph - N/A   Mostly Cloudy
6:54 PM 51.1 °F - 41.0 °F 68% 30.03 in 10.0 mi WSW 5.8 mph - N/A   Mostly Cloudy
7:54 PM 50.0 °F - 39.0 °F 66% 30.04 in 10.0 mi West 9.2 mph - N/A   Mostly Cloudy
8:54 PM 48.0 °F - 39.0 °F 71% 30.06 in 10.0 mi SSW 4.6 mph - N/A   Mostly Cloudy
9:54 PM 46.0 °F 43.1 °F 39.0 °F 76% 30.07 in 10.0 mi SSW 5.8 mph - N/A   Scattered Clouds
10:54 PM 45.0 °F - 39.0 °F 80% 30.07 in 10.0 mi Calm Calm - N/A   Scattered Clouds
11:54 PM 42.1 °F - 37.9 °F 85% 30.08 in 10.0 mi Calm Calm - N/A   Scattered Clouds